This demonstration page uses our WeatherBlox Daily Observations layout. Learn more.

39.29038, -76.61219

Hourly Observations for November 11, 2019

Temp ( °F °C ) Dew Point ( °F °C ) Humidity (%) Winds ( mph kmh ) Pressure ( in mb ) Visibility ( mi km ) Precip ( " mm )
12:54 am 00:54 undefined 46 7.8 38 3.3 73 73 undefined N/A 30.05 1018 N/A 0 0
1:54 am 01:54 undefined 45 7.2 38 3.3 77 77 undefined N/A 30.04 1017 N/A 0 0
2:54 am 02:54 undefined 44 6.7 37 2.8 76 76 undefined N/A 30.04 1017 N/A 0 0
3:54 am 03:54 undefined 43 6.1 37 2.8 80 80 undefined N/A 30.05 1018 N/A 0 0
4:54 am 04:54 undefined 42 5.6 37 2.8 82 82 undefined N/A 30.06 1018 N/A 0 0
5:54 am 05:54 undefined 42 5.6 36 2.2 79 79 undefined N/A 30.06 1018 N/A 0 0
6:54 am 06:54 undefined 42 5.6 36 2.2 79 79 undefined N/A 30.08 1019 N/A 0 0
7:54 am 07:54 undefined 45 7.2 38 3.3 77 77 undefined N/A 30.09 1019 N/A 0 0
8:54 am 08:54 undefined 49 9.4 40 4.4 71 71 undefined N/A 30.09 1019 N/A 0 0
9:54 am 09:54 undefined 52 11.1 39 3.9 61 61 undefined N/A 30.08 1019 N/A 0 0
10:54 am 10:54 undefined 55 12.8 42 5.6 62 62 undefined N/A 30.07 1018 N/A 0 0
11:54 am 11:54 undefined 58 14.4 43 6.1 58 58 undefined N/A 30.05 1018 N/A 0 0
12:54 pm 12:54 undefined 59 15 43 6.1 56 56 undefined N/A 30.01 1016 N/A 0 0
1:54 pm 13:54 undefined 64 17.8 45 7.2 50 50 undefined N/A 29.98 1015 N/A 0 0
2:54 pm 14:54 undefined 62 16.7 43 6.1 50 50 undefined N/A 29.96 1015 N/A 0 0
3:54 pm 15:54 undefined 61 16.1 42 5.6 50 50 undefined N/A 29.94 1014 N/A 0 0
4:54 pm 16:54 undefined 60 15.6 44 6.7 56 56 undefined N/A 29.92 1013 N/A 0 0
5:54 pm 17:54 undefined 58 14.4 44 6.7 60 60 undefined N/A 29.88 1012 N/A 0 0
6:54 pm 18:54 undefined 56 13.3 46 7.8 70 70 undefined N/A 29.89 1012 N/A 0 0
7:54 pm 19:54 undefined 55 12.8 47 8.3 74 74 undefined N/A 29.87 1011 N/A 0 0
8:54 pm 20:54 undefined 54 12.2 48 8.9 80 80 undefined N/A 29.85 1011 N/A 0 0
9:54 pm 21:54 undefined 55 12.8 47 8.3 74 74 undefined N/A 29.84 1010 N/A 0 0
10:54 pm 22:54 undefined 57 13.9 43 6.1 60 60 undefined N/A 29.81 1009 N/A 0 0
11:54 pm 23:54 undefined 61 16.1 41 5 48 48 undefined N/A 29.78 1009 N/A 0 0

Powered by AerisWeather